Location: *
(45.4590°N, 16.3650°E)
Time: 09:14:27
(UTC+00:00)

Cosmos 2237 Rocket - Pass Details

Date: 17 January 2020
Orbit: 837 x 848 km, 71.0° (Epoch: 16 February)

Event Time Altitude Azimuth Distance (km) Brightness Sun altitude
Rises 18:42:47 0° 327° (NNW) 3,398 5.8 -31.7°
Reaches altitude 10° 18:45:22 10° 320° (NW) 2,458 5.1 -32.1°
Maximum altitude 18:50:32 39° 254° (WSW) 1,241 3.4 -33.0°
Enters shadow 18:52:17 31° 215° (SW) 1,432 3.5 -33.3°
